Showing default

QIANFAN-19, 61552

Orbit data source: Space-Track

QIANFAN-19, 61552 is a Chinese payload satellite in LEO that was launched on Tue, 15 Oct 2024 UTC via a CHANG ZHENG 6A launch vehicle from the Taiyaun Space Center, China (TSC). Payload-class satellites include a variety of spacecraft equipped with specific instruments for various scientific and technological missions. These include communications satellites like Starlink; space stations such as the ISS; scientific satellites like the Hubble; Earth observation satellites from companies like Planet Labs, Umbra, and HawkEye 360; GPS; miniature CubeSats for education and research; and military/defense satellites.

Loading next visibility...
Identifier
61552, 2024-185A
Orbit
LEO
Country
Flag of CNCN / PRC
Related business
Manufacturer
GESIH/SECM
Mission
Partially operational Commercial Communications
Bus & Motor
QIANFAN, Unknown motor
Mass
267 kg wet, ~267 kg dry
Launch date (UTC)
2024-10-15 (1 year ago)
Launch vehicle
CHANG ZHENG 6A
Launch site
Taiyaun Space Center, China (TSC)
Object type
Payload
Rocket body
Debris
Shape & HBR
Box + 1 Pan, 5.0 m
Radar Cross Section
13.200 m², Large (>1 m²)

Expand to show TLE details & history
Last TLE update: 7 hours ago

TLE from 7 hours ago
0 QIANFAN-19
1 61552U 24185A   26034.15190462  .00000463  00000-0  23502-3 0  9990
2 61552  88.9766  71.9324 0008811 126.4815 233.7185 14.14357560 77072
Epoch: 2026-02-03T03:38Z
TLE epoch observation values (Epoch: 2026-02-03T03:38:44.559Z)
Latitude
-0°
Longitude
-116.09021°
Altitude
851.314 km
Speed
7.425 km/s
True Right ascension
04h 47m 43s
True Declination
0° 00' 00"
Sunlit
Object was in daylight at epoch
Visualization orbit readout
Latitude
Unknown
Longitude
Unknown
Altitude
Unknown
Speed
Unknown
Apparent Right ascension
Unknown
Apparent Declination
Unknown
Sunlit
N/A
Visualization observer readout
Local Sidereal Time
12:05:21
Azimuth
Unknown
Elevation
Unknown
Doppler factor
Unknown
Orbital elements
Apogee altitude
847.819 km
Perigee altitude
835.097 km
Semi-major axis
7,219.595 km
Eccentricity
0.00088
Inclination
88.9766°
RAAN
71.9324°
Arg. of periapsis
126.4815°
True anomaly
233.63716°
Mean anomaly
233.7185°
Eccentric anomaly
233.67783°
Mean motion
3.53813 °/min
Orbital period
101.75 mins
BSTAR
0.00023502
Loading maneuver chart data...
Computing Atmospheric mass density...
Loading historical data...
Loading historical data...
Loading historical data...
Loading historical data...
Loading historical data...
Loading historical data...
Loading historical data...

Documentation

Showing up to 5 results
|